User: anonymous   Login
Location: NJAA Observatory
(40.6819°N, 74.8979°W)
Time: 20:55:29
(UTC-05:00)
Language:

Meteor 1-28 Rocket - Orbit

View from above orbital plane
View from above orbital plane
View from above satellite
View from above satellite

Ground track
Ground track

The orbit data is extracted from the following two-line orbital elements,

1 10114U 77057B   18054.48739156  .00000294  00000-0  18066-4 0  9994
2 10114  97.2106 229.3698 0014626 154.6411 205.5543 15.16969960221645
Epoch (UTC): 23 February 2018 11:41:50
Eccentricity: 0.0014626
inclination: 97.2106°
perigee height: 505 km
apogee height: 525 km
right ascension of ascending node: 229.3698°
argument of perigee: 154.6411°
revolutions per day: 15.16969960
mean anomaly at epoch: 205.5543°
orbit number at epoch: 22164

The dashed part of the orbit path shows where the satellite is in the earth's shadow,  

DLR